Stations météo

réclame
Mon MeteoGroup
Dunstaffnage, Grande-Bretagne (99006): Température de l'air & dewpoint: 14.10.2017 20:00:00 - 20.10.2017 20:00:00 (BST)Dunstaffnage, Grande-Bretagne (99006): Température de l'air -20cm: 14.10.2017 20:00:00 - 20.10.2017 20:00:00 (BST)Dunstaffnage, Grande-Bretagne (99006): Vitesse du vent & gusts: 14.10.2017 20:00:00 - 20.10.2017 20:00:00 (BST)Dunstaffnage, Grande-Bretagne (99006): Direction du vent: 14.10.2017 20:00:00 - 20.10.2017 20:00:00 (BST)Dunstaffnage, Grande-Bretagne (99006): Quantités de précipitations: 14.10.2017 20:00:00 - 20.10.2017 20:00:00 (BST)
Date & Time tt [°C] td [°C] tt -20cm [°C] ff [km/h] ff [knt] fx [km/h] fx [knt] dd rr [mm]
20.10.2017 20:00:00 - - - - - - - - -
20.10.2017 19:00:00 11,8 9,1 - 11 6 - - S 0,0
20.10.2017 18:00:00 12,9 10,1 - 11 6 - - S 0,0
20.10.2017 17:00:00 13,3 11,5 - 5 3 - - SSW 0,0
20.10.2017 16:00:00 12,7 11,3 - 8 4 - - ENE 0,0
20.10.2017 15:00:00 13,2 10,6 - 8 4 - - ENE 0,0
20.10.2017 14:00:00 14,1 10,2 - 5 3 - - SW 0,0
20.10.2017 13:00:00 13,1 10,8 - 11 6 - - W 0,0
20.10.2017 12:00:00 12,7 11,3 - 5 3 - - W 0,0
20.10.2017 11:00:00 11,7 10,8 - 13 7 - - WNW 0,0
20.10.2017 10:00:00 11,3 10,8 12,0 18 10 - - W 0,2
20.10.2017 09:00:00 11,3 11,3 - 11 6 - - WSW 0,2
20.10.2017 08:00:00 10,5 10,4 - 2 1 - - E 0,0
20.10.2017 07:00:00 9,9 9,8 - 2 1 - - SSW 0,0
20.10.2017 06:00:00 10,1 9,8 - 2 1 - - W 0,0
20.10.2017 05:00:00 10,7 10,5 - 8 4 - - SSW 0,0
20.10.2017 04:00:00 10,4 10,2 - 4 2 - - SW 0,0
20.10.2017 03:00:00 10,9 10,5 - 4 2 - - E 0,4
20.10.2017 02:00:00 11,4 10,9 - 2 1 - - E 1,0
20.10.2017 01:00:00 11,6 11,0 - 0 0 - - N 0,4
20.10.2017 00:00:00 12,1 11,0 - 4 2 - - NNE 0,4
19.10.2017 23:00:00 12,4 11,0 - 9 5 - - E 0,6
19.10.2017 22:00:00 13,0 10,6 - 11 6 - - ESE 0,2
19.10.2017 21:00:00 13,7 10,3 - 13 7 - - ESE 0,0
19.10.2017 20:00:00 13,1 10,6 - 9 5 - - E 0,0
19.10.2017 19:00:00 13,3 10,8 - 13 7 - - E 0,0
19.10.2017 18:00:00 13,3 11,0 - 15 8 - - E 0,0
19.10.2017 17:00:00 14,2 10,7 - 18 10 - - ESE 0,0
19.10.2017 16:00:00 14,2 11,0 - 16 9 - - E 0,0
19.10.2017 15:00:00 14,0 10,9 - 16 9 - - ESE 0,0
19.10.2017 14:00:00 14,3 11,1 - 18 10 - - ESE 0,0
19.10.2017 13:00:00 13,6 11,6 - 16 9 - - E 0,0
19.10.2017 12:00:00 13,6 10,6 - 16 9 - - ESE 0,0
19.10.2017 11:00:00 13,8 10,4 - 16 9 - - ESE 0,0
19.10.2017 10:00:00 13,2 10,4 11,9 16 9 - - ESE 0,0
19.10.2017 09:00:00 13,2 10,1 - 16 9 - - ESE 0,0
19.10.2017 08:00:00 12,9 10,1 - 13 7 - - ESE 0,0
19.10.2017 07:00:00 12,4 10,0 - 16 9 - - E 0,0
19.10.2017 06:00:00 12,2 9,8 - 22 12 - - ESE 0,0
19.10.2017 05:00:00 11,5 9,6 - 24 13 - - ESE 0,0
19.10.2017 04:00:00 11,2 9,4 - 22 12 - - ESE 0,0
19.10.2017 03:00:00 11,3 8,8 - 24 13 - - ESE 0,0
19.10.2017 02:00:00 11,4 8,2 - 26 14 - - ESE 0,0
19.10.2017 01:00:00 10,9 8,1 - 28 15 46 25 ESE 0,0
19.10.2017 00:00:00 11,0 7,5 - 22 12 - - ESE 0,0
18.10.2017 23:00:00 11,3 7,2 - 29 16 50 27 E 0,0
18.10.2017 22:00:00 11,1 7,2 - 28 15 46 25 ESE 0,0
18.10.2017 21:00:00 10,9 7,5 - 29 16 - - E 0,0
18.10.2017 20:00:00 10,9 7,7 - 24 13 - - E 0,0
18.10.2017 19:00:00 10,9 7,3 - 16 9 - - ESE 0,0
18.10.2017 18:00:00 10,8 8,1 - 21 11 - - E 0,0
18.10.2017 17:00:00 10,9 8,4 - 21 11 - - E 0,0
18.10.2017 16:00:00 10,5 8,9 - 21 11 - - E 0,0
18.10.2017 15:00:00 11,7 7,8 - 22 12 - - E 0,0
18.10.2017 14:00:00 11,6 7,7 - 18 10 - - ESE 0,0
18.10.2017 13:00:00 11,6 7,9 - 24 13 - - E 0,0
18.10.2017 12:00:00 11,5 7,1 - 16 9 - - ESE 0,0
18.10.2017 11:00:00 11,3 6,6 - 22 12 - - ESE 0,0
18.10.2017 10:00:00 12,0 6,8 12,0 18 10 - - ESE 0,0
18.10.2017 09:00:00 10,6 6,5 - 22 12 - - ESE 0,0
18.10.2017 08:00:00 10,6 6,7 - 22 12 - - E 0,0
18.10.2017 07:00:00 10,4 7,3 - 15 8 - - E 0,0
18.10.2017 06:00:00 10,3 7,3 - 5 3 - - ESE 0,0
18.10.2017 05:00:00 10,3 7,0 - 9 5 - - ESE 0,0
18.10.2017 04:00:00 10,3 7,1 - 5 3 - - E 0,0
18.10.2017 03:00:00 10,2 7,0 - 8 4 - - E 0,0
18.10.2017 02:00:00 10,3 7,2 - 8 4 - - ESE 0,0
18.10.2017 01:00:00 10,1 8,4 - 4 2 - - ESE 0,0
18.10.2017 00:00:00 10,6 7,9 - 5 3 - - NE 0,0
17.10.2017 23:00:00 10,0 9,0 - 2 1 - - E 0,0
17.10.2017 22:00:00 10,2 8,8 - 2 1 - - WNW 0,0
17.10.2017 21:00:00 11,2 9,0 - 9 5 - - NE 0,0
17.10.2017 20:00:00 11,3 9,0 - 11 6 - - NE 0,0
17.10.2017 19:00:00 11,2 8,8 - 9 5 - - NNE 0,0
17.10.2017 18:00:00 12,1 8,5 - 8 4 - - NW 0,0
17.10.2017 17:00:00 12,2 8,5 - 24 13 - - NW 0,0
17.10.2017 16:00:00 12,4 8,3 - 9 5 - - NW 0,0
17.10.2017 15:00:00 12,4 9,7 - 18 10 - - W 0,0
17.10.2017 14:00:00 12,6 10,5 - 21 11 - - W 0,0
17.10.2017 13:00:00 12,3 10,6 - 28 15 - - W 0,0
17.10.2017 12:00:00 12,4 10,7 - 28 15 - - W 0,0
17.10.2017 11:00:00 12,3 10,4 - 28 15 - - W 0,0
17.10.2017 10:00:00 12,3 10,8 12,0 26 14 - - W 0,0
17.10.2017 09:00:00 12,6 10,9 - 28 15 - - W 0,0
17.10.2017 08:00:00 12,6 11,2 - 24 13 48 26 WSW 0,0
17.10.2017 07:00:00 12,8 11,2 - 29 16 48 26 WSW 0,0
17.10.2017 06:00:00 12,6 11,4 - 28 15 55 30 WSW 0,2
17.10.2017 05:00:00 12,9 11,8 - 29 16 52 28 WSW 0,2
17.10.2017 04:00:00 13,0 11,7 - 39 21 72 39 WSW 0,2
17.10.2017 03:00:00 13,0 12,0 - 41 22 74 40 WSW 0,6
17.10.2017 02:00:00 12,6 11,8 - 31 17 76 41 SW 2,6
17.10.2017 01:00:00 12,5 11,4 - 31 17 57 31 S 2,6
17.10.2017 00:00:00 12,5 10,9 - 29 16 72 39 S 0,6
16.10.2017 23:00:00 12,4 10,9 - 26 14 55 30 S 0,8
16.10.2017 22:00:00 13,4 11,0 - 24 13 - - S 4,6
16.10.2017 21:00:00 12,8 11,6 - 15 8 - - ESE 1,2
16.10.2017 20:00:00 12,1 10,9 - 28 15 52 28 ESE 1,2
16.10.2017 19:00:00 12,3 10,9 - 35 19 55 30 E 1,4
16.10.2017 18:00:00 13,3 10,4 - 34 18 57 31 ESE 2,0
16.10.2017 17:00:00 14,7 11,8 - 24 13 52 28 E 0,0
16.10.2017 16:00:00 15,8 11,5 - 34 18 63 34 E 0,0
16.10.2017 15:00:00 14,7 11,5 - 28 15 52 28 E 0,0
16.10.2017 14:00:00 13,4 10,3 - 34 18 59 32 E 0,0
16.10.2017 13:00:00 12,8 10,2 - 26 14 - - E 0,0
16.10.2017 12:00:00 11,6 10,3 - 9 5 - - E 0,2
16.10.2017 11:00:00 10,3 9,3 - 15 8 - - NNE 0,2
16.10.2017 10:00:00 9,4 9,0 12,0 11 6 - - NNE 2,2
16.10.2017 09:00:00 9,3 8,7 - 2 1 - - N 3,6
16.10.2017 08:00:00 9,4 8,4 - 4 2 - - ESE 0,0
16.10.2017 07:00:00 9,4 8,9 - 13 7 - - NNE 0,2
16.10.2017 06:00:00 9,1 8,6 - 2 1 - - NNW 1,8
16.10.2017 05:00:00 9,2 8,7 - 2 1 - - SW 0,8
16.10.2017 04:00:00 9,5 8,6 - 5 3 - - NE 0,0
16.10.2017 03:00:00 9,4 8,5 - 2 1 - - SE 0,0
16.10.2017 02:00:00 9,4 8,5 - 0 0 - - N 0,0
16.10.2017 01:00:00 9,4 8,7 - 4 2 - - E 0,0
16.10.2017 00:00:00 9,3 8,4 - 4 2 - - SSW 0,0
15.10.2017 23:00:00 9,6 8,1 - 2 1 - - WSW 0,0
15.10.2017 22:00:00 10,6 7,8 - 4 2 - - NE 0,0
15.10.2017 21:00:00 10,7 7,8 - 5 3 - - W 0,0
15.10.2017 20:00:00 10,8 7,7 - 11 6 - - WNW 0,0
15.10.2017 19:00:00 11,0 8,0 - 11 6 - - WNW 0,0
15.10.2017 18:00:00 11,1 9,0 - 13 7 - - W 0,0
15.10.2017 17:00:00 11,6 9,0 - 18 10 - - W 0,0
15.10.2017 16:00:00 12,8 9,9 - 24 13 46 25 W 0,0
15.10.2017 15:00:00 12,4 10,4 - 34 18 46 25 W 0,0
15.10.2017 14:00:00 14,1 12,1 - 31 17 61 33 WSW 0,0
15.10.2017 13:00:00 16,6 13,1 - 24 13 55 30 S 0,0
15.10.2017 12:00:00 16,5 13,0 - 21 11 50 27 S 0,0
15.10.2017 11:00:00 15,4 12,7 - 22 12 - - S 0,0
15.10.2017 10:00:00 15,2 12,3 12,2 18 10 - - S 0,0
15.10.2017 09:00:00 15,0 11,9 - 24 13 50 27 S 0,0
15.10.2017 08:00:00 14,4 11,6 - 13 7 - - SE 0,0
15.10.2017 07:00:00 14,5 11,7 - 21 11 - - S 0,0
15.10.2017 06:00:00 14,4 12,1 - 21 11 - - S 0,2
15.10.2017 05:00:00 14,0 12,5 - 21 11 - - S 1,0
15.10.2017 04:00:00 15,0 11,8 - 18 10 - - S 0,0
15.10.2017 03:00:00 14,9 11,7 - 21 11 46 25 S 0,0
15.10.2017 02:00:00 14,9 11,7 - 24 13 48 26 S 0,0
15.10.2017 01:00:00 14,4 12,0 - 16 9 - - S 0,2
15.10.2017 00:00:00 14,1 12,4 - 15 8 - - SE 0,2
14.10.2017 23:00:00 13,4 12,0 - 11 6 - - ESE 0,0
14.10.2017 22:00:00 12,7 11,1 - 15 8 - - ESE 0,0
14.10.2017 21:00:00 11,9 9,6 - 22 12 - - ESE 0,0
14.10.2017 20:00:00 11,4 9,0 - 11 6 - - ESE 0,0

tt = Température de l'air
td = dewpoint
tt -20cm = Température de l'air -20cm
ff = Vitesse du vent
fx = gusts
dd = Direction du vent
rr = Quantités de précipitations

stations d'obs. à proximité